JST411 YSSY-YSCB

Flight info

Callsign JST411
Flight time 0h 29m
Altitude 18000
Route WOL H65 LEECE
Aircraft A321/M-SDE3FGHIRWY/LB1

Departure

Time 2026-05-06 03:12
Airport Sydney Kingsford Smith International Airport (YSSY)

Arrival

Time 2026-05-06 03:41
Airport Canberra Airport (YSCB)
Time Latitude Longitude Altitude Speed Heading
2026-05-06 02:59 -33.93410 151.17708 29 ft 0 kts 99°
2026-05-06 03:06 -33.93407 151.17684 30 ft 4 kts 100°
2026-05-06 03:06 -33.93403 151.17652 30 ft 4 kts 91°
2026-05-06 03:06 -33.93404 151.17626 30 ft 4 kts 87°
2026-05-06 03:07 -33.93399 151.17600 30 ft 4 kts 145°
2026-05-06 03:07 -33.93374 151.17589 30 ft 4 kts 170°
2026-05-06 03:07 -33.93362 151.17586 30 ft 0 kts 170°
2026-05-06 03:09 -33.93368 151.17587 30 ft 3 kts 169°
2026-05-06 03:10 -33.93402 151.17592 30 ft 6 kts 177°
2026-05-06 03:10 -33.93447 151.17573 30 ft 8 kts 224°
2026-05-06 03:10 -33.93465 151.17507 30 ft 9 kts 257°
2026-05-06 03:10 -33.93476 151.17449 29 ft 7 kts 259°
2026-05-06 03:11 -33.93487 151.17379 28 ft 10 kts 259°
2026-05-06 03:11 -33.93519 151.17312 27 ft 7 kts 197°
2026-05-06 03:11 -33.93536 151.17315 27 ft 4 kts 169°
2026-05-06 03:11 -33.93781 151.17377 30 ft 73 kts 167°
2026-05-06 03:12 -33.94490 151.17562 30 ft 135 kts 168°
2026-05-06 03:12 -33.95540 151.17829 362 ft 154 kts 169°
2026-05-06 03:12 -33.96614 151.17885 1012 ft 159 kts 181°
2026-05-06 03:12 -33.97741 151.17819 1643 ft 167 kts 182°
2026-05-06 03:13 -33.98925 151.17743 2148 ft 178 kts 182°
2026-05-06 03:13 -34.00239 151.17662 2435 ft 199 kts 182°
2026-05-06 03:13 -34.01695 151.17552 2678 ft 221 kts 188°
2026-05-06 03:13 -34.03190 151.16819 2856 ft 246 kts 210°
2026-05-06 03:14 -34.04673 151.15637 3282 ft 263 kts 223°
2026-05-06 03:14 -34.06018 151.14082 3818 ft 277 kts 225°
2026-05-06 03:14 -34.07460 151.12398 4100 ft 300 kts 225°
2026-05-06 03:14 -34.09020 151.10581 4330 ft 323 kts 225°
2026-05-06 03:15 -34.10678 151.08628 4663 ft 339 kts 226°
2026-05-06 03:15 -34.12370 151.06604 5282 ft 345 kts 226°
2026-05-06 03:15 -34.14085 151.04551 5931 ft 350 kts 226°
2026-05-06 03:15 -34.15828 151.02481 6611 ft 352 kts 226°
2026-05-06 03:16 -34.17587 151.00404 7265 ft 355 kts 226°
2026-05-06 03:16 -34.19369 150.98314 7927 ft 358 kts 225°
2026-05-06 03:16 -34.21163 150.96219 8576 ft 360 kts 225°
2026-05-06 03:16 -34.22968 150.94110 9233 ft 362 kts 226°
2026-05-06 03:17 -34.24786 150.91980 9878 ft 365 kts 226°
2026-05-06 03:17 -34.26617 150.89831 10457 ft 368 kts 226°
2026-05-06 03:17 -34.28455 150.87672 11048 ft 370 kts 226°
2026-05-06 03:17 -34.30305 150.85498 11639 ft 372 kts 226°
2026-05-06 03:18 -34.32167 150.83314 12229 ft 374 kts 226°
2026-05-06 03:18 -34.34038 150.81117 12801 ft 376 kts 226°
2026-05-06 03:18 -34.35916 150.78909 13368 ft 378 kts 226°
2026-05-06 03:18 -34.37805 150.76680 13939 ft 380 kts 227°
2026-05-06 03:19 -34.39702 150.74438 14453 ft 382 kts 227°
2026-05-06 03:19 -34.41609 150.72182 14964 ft 385 kts 227°
2026-05-06 03:19 -34.43530 150.69908 15466 ft 387 kts 226°
2026-05-06 03:19 -34.45447 150.67643 15960 ft 390 kts 226°
2026-05-06 03:20 -34.49366 150.63015 16876 ft 396 kts 226°
2026-05-06 03:20 -34.51347 150.60676 17320 ft 399 kts 226°
2026-05-06 03:20 -34.53343 150.58317 17771 ft 402 kts 226°
2026-05-06 03:21 -34.55351 150.55943 18073 ft 404 kts 226°
2026-05-06 03:21 -34.57378 150.53542 18133 ft 414 kts 226°
2026-05-06 03:21 -34.59465 150.51059 18130 ft 426 kts 226°
2026-05-06 03:21 -34.61594 150.48519 18127 ft 430 kts 226°
2026-05-06 03:22 -34.63729 150.45974 18122 ft 431 kts 226°
2026-05-06 03:22 -34.65868 150.43427 18125 ft 431 kts 226°
2026-05-06 03:22 -34.68011 150.40879 18125 ft 431 kts 226°
2026-05-06 03:22 -34.69432 150.39193 18125 ft 431 kts 226°
2026-05-06 03:23 -34.72307 150.35777 18122 ft 431 kts 226°
2026-05-06 03:23 -34.73724 150.34089 18121 ft 431 kts 226°
2026-05-06 03:23 -34.76559 150.30704 18121 ft 431 kts 226°
2026-05-06 03:23 -34.78003 150.28979 18121 ft 431 kts 226°
2026-05-06 03:24 -34.80142 150.26419 18123 ft 431 kts 226°
2026-05-06 03:24 -34.82973 150.23031 18107 ft 431 kts 226°
2026-05-06 03:24 -34.84416 150.21305 18105 ft 431 kts 226°
2026-05-06 03:24 -34.86558 150.18740 18101 ft 432 kts 226°
2026-05-06 03:25 -34.88702 150.16168 18097 ft 432 kts 226°
2026-05-06 03:25 -34.90811 150.13635 18099 ft 432 kts 226°
2026-05-06 03:25 -34.92947 150.11063 18100 ft 432 kts 226°
2026-05-06 03:25 -34.95082 150.08491 18102 ft 432 kts 226°
2026-05-06 03:26 -34.97220 150.05916 18105 ft 432 kts 226°
2026-05-06 03:26 -34.99358 150.03345 18100 ft 432 kts 226°
2026-05-06 03:26 -35.01500 150.00771 18096 ft 432 kts 226°
2026-05-06 03:26 -35.03641 149.98194 18095 ft 432 kts 226°
2026-05-06 03:27 -35.05778 149.95613 18093 ft 433 kts 227°
2026-05-06 03:27 -35.07885 149.92995 18095 ft 433 kts 228°
2026-05-06 03:27 -35.09959 149.90332 18096 ft 433 kts 229°
2026-05-06 03:27 -35.12012 149.87645 18091 ft 433 kts 229°
2026-05-06 03:28 -35.14058 149.84958 17799 ft 426 kts 229°
2026-05-06 03:28 -35.16060 149.82333 17119 ft 418 kts 229°
2026-05-06 03:28 -35.18029 149.79765 16540 ft 410 kts 229°
2026-05-06 03:28 -35.19940 149.77285 15975 ft 402 kts 229°
2026-05-06 03:29 -35.21845 149.74822 15417 ft 395 kts 229°
2026-05-06 03:29 -35.23720 149.72401 14865 ft 388 kts 229°
2026-05-06 03:29 -35.25563 149.70019 14347 ft 382 kts 229°
2026-05-06 03:29 -35.27375 149.67674 13785 ft 376 kts 229°
2026-05-06 03:30 -35.29153 149.65368 13223 ft 369 kts 229°
2026-05-06 03:30 -35.30897 149.63103 12675 ft 362 kts 229°
2026-05-06 03:30 -35.32615 149.60872 12132 ft 358 kts 229°
2026-05-06 03:30 -35.34314 149.58663 11586 ft 356 kts 229°
2026-05-06 03:31 -35.35999 149.56466 11196 ft 347 kts 229°
2026-05-06 03:31 -35.37612 149.54366 11075 ft 330 kts 229°
2026-05-06 03:31 -35.39151 149.52359 10952 ft 316 kts 230°
2026-05-06 03:31 -35.40622 149.50437 10835 ft 303 kts 230°
2026-05-06 03:32 -35.42035 149.48591 10654 ft 293 kts 230°
2026-05-06 03:32 -35.43413 149.46789 10442 ft 285 kts 230°
2026-05-06 03:32 -35.44774 149.45011 10379 ft 287 kts 230°
2026-05-06 03:32 -35.46140 149.43226 10276 ft 286 kts 230°
2026-05-06 03:33 -35.47497 149.41452 10158 ft 285 kts 230°
2026-05-06 03:33 -35.48852 149.39682 10023 ft 284 kts 230°
2026-05-06 03:33 -35.50208 149.37904 9622 ft 289 kts 230°
2026-05-06 03:33 -35.51577 149.36105 9242 ft 286 kts 230°
2026-05-06 03:34 -35.52936 149.34325 8840 ft 284 kts 230°
2026-05-06 03:34 -35.54231 149.32567 8303 ft 278 kts 237°
2026-05-06 03:34 -35.55162 149.30524 7561 ft 272 kts 253°
2026-05-06 03:34 -35.55577 149.28327 7149 ft 255 kts 266°
2026-05-06 03:35 -35.55804 149.26230 6985 ft 242 kts 265°
2026-05-06 03:35 -35.56036 149.24227 6889 ft 230 kts 266°
2026-05-06 03:35 -35.55915 149.22352 6751 ft 217 kts 289°
2026-05-06 03:35 -35.55176 149.20778 6477 ft 213 kts 313°
2026-05-06 03:36 -35.53969 149.19751 6269 ft 213 kts 336°
2026-05-06 03:36 -35.52513 149.19438 6015 ft 215 kts 356°
2026-05-06 03:36 -35.51030 149.19442 5748 ft 210 kts 356°
2026-05-06 03:36 -35.49630 149.19447 5475 ft 198 kts 356°
2026-05-06 03:37 -35.48294 149.19449 5214 ft 186 kts 356°
2026-05-06 03:37 -35.47047 149.19449 4995 ft 171 kts 356°
2026-05-06 03:37 -35.45908 149.19449 4755 ft 158 kts 356°
2026-05-06 03:37 -35.44833 149.19448 4554 ft 152 kts 356°
2026-05-06 03:38 -35.43777 149.19447 4337 ft 151 kts 356°
2026-05-06 03:38 -35.42730 149.19446 4148 ft 148 kts 356°
2026-05-06 03:38 -35.41714 149.19451 3978 ft 144 kts 356°
2026-05-06 03:38 -35.40699 149.19446 3767 ft 145 kts 356°
2026-05-06 03:39 -35.39696 149.19439 3555 ft 143 kts 356°
2026-05-06 03:39 -35.38700 149.19445 3345 ft 143 kts 356°
2026-05-06 03:39 -35.37699 149.19451 3116 ft 146 kts 357°
2026-05-06 03:39 -35.36698 149.19447 2953 ft 144 kts 356°
2026-05-06 03:40 -35.35688 149.19450 2787 ft 143 kts 356°
2026-05-06 03:40 -35.34684 149.19448 2570 ft 144 kts 355°
2026-05-06 03:40 -35.33684 149.19440 2331 ft 142 kts 354°
2026-05-06 03:40 -35.32693 149.19446 2140 ft 143 kts 355°
2026-05-06 03:41 -35.31701 149.19446 1955 ft 143 kts 355°
2026-05-06 03:41 -35.30746 149.19443 1879 ft 121 kts 358°
2026-05-06 03:41 -35.30072 149.19441 1879 ft 73 kts
2026-05-06 03:41 -35.29765 149.19446 1879 ft 36 kts
2026-05-06 03:42 -35.29586 149.19404 1879 ft 18 kts 297°
2026-05-06 03:42 -35.29602 149.19263 1878 ft 17 kts 222°
2026-05-06 03:42 -35.29722 149.19243 1879 ft 18 kts 180°
2026-05-06 03:42 -35.29852 149.19243 1879 ft 19 kts 181°
2026-05-06 03:43 -35.29989 149.19240 1879 ft 20 kts 181°